OK2IGL-6 Weather Reports


time (UTC)temp
C
wind
direction
speed
KPH
gust
KPH
rain 1hr
cm
rain 24hr
cm
rain mn
cm
humidity
%
barometer
mb
20260905183010 20 0 0.0 0.0 0.00 0.00 0.00 59 1014.0
20260905182300 20 0 0.0 0.0 0.00 0.00 0.00 58 1013.0
20260905181310 20 0 0.0 0.0 0.00 0.00 0.00 57 1012.0
20260905180600 21 0 0.0 0.0 0.00 0.00 0.00 57 1012.0
20260905175851 21 0 0.0 0.0 0.00 0.00 0.00 56 1013.0
20260905175141 21 0 0.0 0.0 0.00 0.00 0.00 56 1014.0
20260905174432 21 0 0.0 0.0 0.00 0.00 0.00 54 1015.0
20260905173723 21 0 0.0 0.0 0.00 0.00 0.00 54 1013.0
20260905173013 22 0 0.0 0.0 0.00 0.00 0.00 53 1015.0
20260905172305 22 0 0.0 0.0 0.00 0.00 0.00 52 1012.0
20260905171554 22 0 0.0 0.0 0.00 0.00 0.00 52 1014.0
20260905170845 22 0 0.0 0.0 0.00 0.00 0.00 51 1013.0
20260905170135 22 0 0.0 0.0 0.00 0.00 0.00 50 1015.0
20260905165426 22 0 0.0 0.0 0.00 0.00 0.00 51 1014.0
20260905164716 23 0 0.0 0.0 0.00 0.00 0.00 52 1015.0
20260905164007 23 0 0.0 0.0 0.00 0.00 0.00 51 1015.0
20260905163257 23 0 0.0 0.0 0.00 0.00 0.00 51 1015.0
20260905162307 23 0 0.0 0.0 0.00 0.00 0.00 50 1013.0
20260905161557 23 0 0.0 0.0 0.00 0.00 0.00 49 1015.0
20260905160848 23 0 0.0 0.0 0.00 0.00 0.00 49 1014.0
20260905160138 24 0 0.0 0.0 0.00 0.00 0.00 47 1012.0
20260905155429 24 0 0.0 0.0 0.00 0.00 0.00 47 1013.0
20260905154720 24 0 0.0 0.0 0.00 0.00 0.00 46 1010.0
20260905154010 24 0 0.0 0.0 0.00 0.00 0.00 46 1011.0
20260905153301 24 0 0.0 0.0 0.00 0.00 0.00 46 1011.0
20260905152551 24 0 0.0 0.0 0.00 0.00 0.00 46 1010.0
20260905151842 25 0 0.0 0.0 0.00 0.00 0.00 46 1011.0
20260905151132 25 0 0.0 0.0 0.00 0.00 0.00 46 1010.0
20260905150423 25 0 0.0 0.0 0.00 0.00 0.00 45 1010.0
20260905145713 25 0 0.0 0.0 0.00 0.00 0.00 44 1010.0
20260905145004 25 0 0.0 0.0 0.00 0.00 0.00 46 1010.0
20260905144254 25 0 0.0 0.0 0.00 0.00 0.00 46 1012.0
20260905143304 25 0 0.0 0.0 0.00 0.00 0.00 46 1010.0
20260905142555 25 0 0.0 0.0 0.00 0.00 0.00 46 1014.0
20260905141845 25 0 0.0 0.0 0.00 0.00 0.00 46 1014.0
20260905141136 25 0 0.0 0.0 0.00 0.00 0.00 47 1014.0
20260905140426 25 0 0.0 0.0 0.00 0.00 0.00 45 1014.0
20260905135717 25 0 0.0 0.0 0.00 0.00 0.00 46 1014.0
20260905135007 25 0 0.0 0.0 0.00 0.00 0.00 47 1014.0
20260905134258 25 0 0.0 0.0 0.00 0.00 0.00 48 1015.0
20260905133548 25 0 0.0 0.0 0.00 0.00 0.00 46 1015.0
20260905132839 25 0 0.0 0.0 0.00 0.00 0.00 47 1015.0
20260905132129 25 0 0.0 0.0 0.00 0.00 0.00 47 1015.0
20260905131420 25 0 0.0 0.0 0.00 0.00 0.00 47 1015.0
20260905130711 25 0 0.0 0.0 0.00 0.00 0.00 48 1015.0
20260905130001 25 0 0.0 0.0 0.00 0.00 0.00 46 1015.0
20260905125252 25 0 0.0 0.0 0.00 0.00 0.00 48 1015.0
20260905124301 25 0 0.0 0.0 0.00 0.00 0.00 48 1015.0
20260905123552 25 0 0.0 0.0 0.00 0.00 0.00 49 1015.0
20260905122842 25 0 0.0 0.0 0.00 0.00 0.00 48 1015.0
20260905122133 25 0 0.0 0.0 0.00 0.00 0.00 50 1015.0
20260905121423 25 0 0.0 0.0 0.00 0.00 0.00 50 1015.0
20260905120714 25 0 0.0 0.0 0.00 0.00 0.00 50 1015.0
20260905120004 25 0 0.0 0.0 0.00 0.00 0.00 50 1015.0
20260905115255 25 0 0.0 0.0 0.00 0.00 0.00 51 1016.0
20260905114545 25 0 0.0 0.0 0.00 0.00 0.00 51 1016.0
20260905113836 25 0 0.0 0.0 0.00 0.00 0.00 53 1015.0
20260905113126 25 0 0.0 0.0 0.00 0.00 0.00 56 1016.0
20260905112417 25 0 0.0 0.0 0.00 0.00 0.00 53 1015.0
20260905111708 25 0 0.0 0.0 0.00 0.00 0.00 56 1015.0
20260905110958 25 0 0.0 0.0 0.00 0.00 0.00 58 1016.0
20260905110249 25 0 0.0 0.0 0.00 0.00 0.00 59 1016.0
20260905105258 24 0 0.0 0.0 0.00 0.00 0.00 60 1015.0
20260905104549 24 0 0.0 0.0 0.00 0.00 0.00 62 1016.0
20260905103839 24 0 0.0 0.0 0.00 0.00 0.00 63 1016.0
20260905103130 23 0 0.0 0.0 0.00 0.00 0.00 65 1016.0
20260905102420 23 0 0.0 0.0 0.00 0.00 0.00 65 1017.0
20260905101711 23 0 0.0 0.0 0.00 0.00 0.00 65 1017.0
20260905101001 23 0 0.0 0.0 0.00 0.00 0.00 65 1016.0
20260905100252 23 0 0.0 0.0 0.00 0.00 0.00 66 1016.0
20260905095542 23 0 0.0 0.0 0.00 0.00 0.00 66 1017.0
20260905094833 22 0 0.0 0.0 0.00 0.00 0.00 67 1016.0
20260905094124 22 0 0.0 0.0 0.00 0.00 0.00 67 1016.0
20260905093414 22 0 0.0 0.0 0.00 0.00 0.00 69 1016.0
20260905092705 22 0 0.0 0.0 0.00 0.00 0.00 72 1017.0
20260905091955 21 0 0.0 0.0 0.00 0.00 0.00 72 1016.0
20260905091246 21 0 0.0 0.0 0.00 0.00 0.00 70 1017.0
20260905090255 21 0 0.0 0.0 0.00 0.00 0.00 74 1017.0
20260905085546 20 0 0.0 0.0 0.00 0.00 0.00 75 1017.0
20260905084836 20 0 0.0 0.0 0.00 0.00 0.00 76 1017.0
20260905084127 19 0 0.0 0.0 0.00 0.00 0.00 78 1017.0
20260905083417 18 0 0.0 0.0 0.00 0.00 0.00 77 1017.0
20260905082708 18 0 0.0 0.0 0.00 0.00 0.00 80 1015.0
20260905081958 18 0 0.0 0.0 0.00 0.00 0.00 81 1017.0
20260905081249 18 0 0.0 0.0 0.00 0.00 0.00 81 1016.0
20260905080540 18 0 0.0 0.0 0.00 0.00 0.00 80 1016.0
20260905075830 17 0 0.0 0.0 0.00 0.00 0.00 82 1015.0
20260905075121 17 0 0.0 0.0 0.00 0.00 0.00 83 1016.0
20260905074411 17 0 0.0 0.0 0.00 0.00 0.00 85 1016.0
20260905073702 17 0 0.0 0.0 0.00 0.00 0.00 84 1015.0
20260905072952 17 0 0.0 0.0 0.00 0.00 0.00 84 1015.0
20260905072243 17 0 0.0 0.0 0.00 0.00 0.00 84 1015.0
20260905071252 17 0 0.0 0.0 0.00 0.00 0.00 84 1015.0
20260905070543 17 0 0.0 0.0 0.00 0.00 0.00 84 1014.0
20260905065833 17 0 0.0 0.0 0.00 0.00 0.00 85 1014.0
20260905065124 17 0 0.0 0.0 0.00 0.00 0.00 85 1014.0
20260905064415 17 0 0.0 0.0 0.00 0.00 0.00 83 1014.0
20260905063705 17 0 0.0 0.0 0.00 0.00 0.00 84 1014.0
20260905062955 17 0 0.0 0.0 0.00 0.00 0.00 85 1015.0
20260905062246 17 0 0.0 0.0 0.00 0.00 0.00 88 1015.0
20260905061537 17 0 0.0 0.0 0.00 0.00 0.00 88 1015.0
20260905060827 17 0 0.0 0.0 0.00 0.00 0.00 89 1015.0
20260905060118 17 0 0.0 0.0 0.00 0.00 0.00 88 1014.0
20260905055408 17 0 0.0 0.0 0.00 0.00 0.00 89 1015.0
20260905054659 17 0 0.0 0.0 0.00 0.00 0.00 89 1014.0
20260905053949 17 0 0.0 0.0 0.00 0.00 0.00 89 1015.0
20260905053240 17 0 0.0 0.0 0.00 0.00 0.00 89 1014.0
20260905052249 17 0 0.0 0.0 0.00 0.00 0.00 89 1014.0
20260905051540 17 0 0.0 0.0 0.00 0.00 0.00 88 1014.0
20260905050830 17 0 0.0 0.0 0.00 0.00 0.00 88 1014.0
20260905050121 18 0 0.0 0.0 0.00 0.00 0.00 88 1014.0
20260905045411 18 0 0.0 0.0 0.00 0.00 0.00 86 1014.0
20260905044702 18 0 0.0 0.0 0.00 0.00 0.00 87 1014.0
20260905043953 18 0 0.0 0.0 0.00 0.00 0.00 86 1014.0
20260905043243 18 0 0.0 0.0 0.00 0.00 0.00 84 1014.0
20260905042534 18 0 0.0 0.0 0.00 0.00 0.00 85 1014.0
20260905041824 18 0 0.0 0.0 0.00 0.00 0.00 82 1013.0
20260905041115 18 0 0.0 0.0 0.00 0.00 0.00 81 1013.0
20260905040405 18 0 0.0 0.0 0.00 0.00 0.00 82 1013.0
20260905035656 18 0 0.0 0.0 0.00 0.00 0.00 81 1013.0
20260905034946 19 0 0.0 0.0 0.00 0.00 0.00 81 1013.0
20260905034237 20 0 0.0 0.0 0.00 0.00 0.00 79 1013.0
20260905033246 20 0 0.0 0.0 0.00 0.00 0.00 70 1013.0
20260905032537 20 0 0.0 0.0 0.00 0.00 0.00 66 1012.0
20260905031827 20 0 0.0 0.0 0.00 0.00 0.00 66 1012.0
20260905031118 20 0 0.0 0.0 0.00 0.00 0.00 66 1012.0
20260905030409 20 0 0.0 0.0 0.00 0.00 0.00 66 1012.0
20260905025659 20 0 0.0 0.0 0.00 0.00 0.00 65 1012.0
20260905024950 20 0 0.0 0.0 0.00 0.00 0.00 65 1011.0
20260905024240 21 0 0.0 0.0 0.00 0.00 0.00 64 1011.0
20260905023531 21 0 0.0 0.0 0.00 0.00 0.00 64 1012.0
20260905022821 21 0 0.0 0.0 0.00 0.00 0.00 63 1012.0
20260905022112 21 0 0.0 0.0 0.00 0.00 0.00 64 1012.0
20260905021402 21 0 0.0 0.0 0.00 0.00 0.00 64 1012.0
20260905020653 21 0 0.0 0.0 0.00 0.00 0.00 64 1011.0
20260905015943 21 0 0.0 0.0 0.00 0.00 0.00 65 1011.0
20260905015234 21 0 0.0 0.0 0.00 0.00 0.00 65 1011.0
20260905014244 22 0 0.0 0.0 0.00 0.00 0.00 65 1011.0
20260905013534 22 0 0.0 0.0 0.00 0.00 0.00 67 1011.0
20260905012825 22 0 0.0 0.0 0.00 0.00 0.00 67 1011.0
20260905012115 22 0 0.0 0.0 0.00 0.00 0.00 66 1011.0
20260905011406 22 0 0.0 0.0 0.00 0.00 0.00 64 1010.0
20260905010656 22 0 0.0 0.0 0.00 0.00 0.00 62 1009.0
20260905005947 22 0 0.0 0.0 0.00 0.00 0.00 62 1009.0
20260905005237 22 0 0.0 0.0 0.00 0.00 0.00 62 1009.0
20260905004528 22 0 0.0 0.0 0.00 0.00 0.00 62 1009.0
20260905003818 22 0 0.0 0.0 0.00 0.00 0.00 62 1009.0
20260905003109 22 0 0.0 0.0 0.00 0.00 0.00 62 1009.0
20260905002359 22 0 0.0 0.0 0.00 0.00 0.00 62 1008.0
20260905001650 22 0 0.0 0.0 0.00 0.00 0.00 62 1008.0
20260905000941 22 0 0.0 0.0 0.00 0.00 0.00 62 1008.0
20260905000233 22 0 0.0 0.0 0.00 0.00 0.00 62 1008.0
20260904235241 22 0 0.0 0.0 0.00 0.00 0.00 61 1008.0
20260904234531 22 0 0.0 0.0 0.00 0.00 0.00 62 1008.0
20260904233822 23 0 0.0 0.0 0.00 0.00 0.00 62 1008.0
20260904233112 23 0 0.0 0.0 0.00 0.00 0.00 61 1008.0
20260904232403 23 0 0.0 0.0 0.00 0.00 0.00 61 1008.0
20260904231653 23 0 0.0 0.0 0.00 0.00 0.00 62 1008.0
20260904230944 22 0 0.0 0.0 0.00 0.00 0.00 62 1008.0
20260904230234 23 0 0.0 0.0 0.00 0.00 0.00 64 1008.0
20260904225525 23 0 0.0 0.0 0.00 0.00 0.00 62 1008.0
20260904224816 23 0 0.0 0.0 0.00 0.00 0.00 62 1008.0
20260904224106 23 0 0.0 0.0 0.00 0.00 0.00 61 1008.0
20260904223357 23 0 0.0 0.0 0.00 0.00 0.00 61 1008.0
20260904222647 23 0 0.0 0.0 0.00 0.00 0.00 61 1008.0
20260904221938 23 0 0.0 0.0 0.00 0.00 0.00 60 1008.0
20260904221228 23 0 0.0 0.0 0.00 0.00 0.00 59 1008.0
20260904220238 24 0 0.0 0.0 0.00 0.00 0.00 58 1008.0
20260904215528 24 0 0.0 0.0 0.00 0.00 0.00 57 1008.0
20260904214819 24 0 0.0 0.0 0.00 0.00 0.00 57 1008.0
20260904214109 24 0 0.0 0.0 0.00 0.00 0.00 57 1008.0
20260904213400 24 0 0.0 0.0 0.00 0.00 0.00 56 1008.0
20260904212650 24 0 0.0 0.0 0.00 0.00 0.00 56 1008.0
20260904211941 24 0 0.0 0.0 0.00 0.00 0.00 56 1008.0
20260904211232 24 0 0.0 0.0 0.00 0.00 0.00 56 1008.0
20260904210522 24 0 0.0 0.0 0.00 0.00 0.00 56 1008.0
20260904205813 24 0 0.0 0.0 0.00 0.00 0.00 57 1008.0
20260904205103 24 0 0.0 0.0 0.00 0.00 0.00 57 1008.0
20260904204354 23 0 0.0 0.0 0.00 0.00 0.00 58 1008.0
20260904203644 23 0 0.0 0.0 0.00 0.00 0.00 59 1008.0
20260904202935 23 0 0.0 0.0 0.00 0.00 0.00 59 1008.0
20260904202225 23 0 0.0 0.0 0.00 0.00 0.00 58 1008.0
20260904201235 23 0 0.0 0.0 0.00 0.00 0.00 59 1008.0
20260904200525 24 0 0.0 0.0 0.00 0.00 0.00 58 1008.0
20260904195816 24 0 0.0 0.0 0.00 0.00 0.00 58 1008.0
20260904193645 24 0 0.0 0.0 0.00 0.00 0.00 58 1008.0
20260904192935 24 0 0.0 0.0 0.00 0.00 0.00 58 1009.0
20260904192226 24 0 0.0 0.0 0.00 0.00 0.00 58 1008.0
20260904191517 24 0 0.0 0.0 0.00 0.00 0.00 58 1009.0
20260904190807 25 0 0.0 0.0 0.00 0.00 0.00 57 1008.0
20260904190058 25 0 0.0 0.0 0.00 0.00 0.00 57 1008.0
20260904185348 25 0 0.0 0.0 0.00 0.00 0.00 57 1008.0
20260904184639 25 0 0.0 0.0 0.00 0.00 0.00 55 1009.0
20260904183929 25 0 0.0 0.0 0.00 0.00 0.00 55 1009.0